Dewpoint
20 17 18 13 13 17 27 27 27 18 16 15 8 8 2 3 3 -1 10 12 13 13 9 9 11 9 8 9 15 15 19 19 19 23 25 25 26 27 27 31 35 43 41 41 46 43 44 48 49 52 54 57 60 61 60 59 58 59 54 58 62 61 58 55 54 52 50 51 50 51 51 52 50 51 54 52 56 55 56 57 54 54 54 57 58 57
22 15 19 19 25 27 28 28 26 23 22 17 14 12 5 5 7 0 6 13 14 21 9 10 8 14 16 16 17 18 20 18 20 21 26 26 26 27 27 29 32 39 48 40 46 42 41 44 52 56 56 59 59 59 59 59 58 60 59 60 62 60 56 53 54 52 52 52 49 49 50 49 47 45 47 50 53 55 56 55 54 55 53 55 57 57
17 13 18 22 27 27 27 26 23 22 22 19 12 11 8 4 2 13 15 15 12 17 12 7 9 13 16 15 16 20 21 20 20 22 24 26 25 24 23 27 33 38 41 45 48 47 45 46 51 56 59 60 60 62 60 59 60 61 60 59 62 59 53 53 55 52 53 53 54 52 48 47 48 51 53 50 51 53 50 55 55 56 57 56 54 54
18 9 23 21 25 25 24 23 24 24 25 18 13 10 9 3 3 9 22 19 19 18 13 13 9 14 19 17 19 22 20 22 24 25 28 27 26 27 26 25 30 34 39 47 50 49 45 47 54 57 59 61 61 61 60 61 61 61 61 61 62 58 54 55 55 52 55 56 55 54 54 51 49 49 51 53 52 53 52 52 55 55 56 55 55 53
8 18 20 23 21 22 26 26 26 20 18 20 21 10 6 6 4 4 15 23 27 26 27 16 19 16 17 13 14 21 20 22 21 22 24 25 24 29 31 30 33 33 37 45 48 50 47 51 54 56 57 60 60 61 59 59 60 61 61 61 61 57 55 54 54 54 56 55 55 53 54 53 49 48 48 50 50 51 52 53 54 54 56 55 53 53
4 18 23 17 14 16 23 24 24 25 13 15 21 20 15 14 17 15 23 23 22 21 25 14 9 11 13 10 8 15 20 20 20 22 22 26 28 27 29 34 36 40 38 38 43 43 51 53 55 55 57 58 58 60 60 61 60 61 60 61 60 55 54 54 55 57 55 52 51 50 46 43 45 46 48 48 49 50 49 48 54 53 54 54 55 53
15 22 18 18 20 20 18 19 24 24 15 15 17 20 18 12 20 21 19 21 16 12 19 26 17 12 10 5 8 15 19 20 21 20 17 18 20 18 20 23 29 34 39 40 42 41 44 49 52 56 56 57 57 59 60 61 60 61 60 61 60 55 53 55 54 57 52 51 50 50 48 46 47 47 50 51 51 49 48 53 54 54 56 55 55 54
13 16 16 18 23 21 20 16 22 23 16 9 20 17 14 11 15 21 20 18 15 18 27 21 16 17 11 10 14 15 20 20 21 21 20 16 19 19 20 18 25 24 33 36 38 41 45 52 53 54 56 57 57 59 60 62 61 60 60 61 59 54 53 55 54 56 52 51 50 50 49 47 46 48 50 51 51 52 50 51 54 54 55 54 54 54
23 22 20 20 22 17 14 13 20 22 17 16 26 17 15 11 17 18 17 17 17 17 13 14 15 16 14 13 12 16 18 18 16 20 22 21 21 22 22 21 20 25 26 29 33 38 39 44 52 54 55 57 57 58 60 61 61 60 60 60 58 54 53 55 55 55 52 52 51 50 48 46 47 49 48 48 48 48 51 52 52 53 52 53 54 53
19 16 15 14 16 15 13 10 17 20 20 21 19 19 16 16 16 21 20 16 19 17 14 19 20 13 10 14 7 16 16 18 18 16 15 22 26 24 25 27 30 29 32 33 33 37 41 45 45 54 56 56 57 59 60 60 61 58 60 60 57 54 53 55 55 55 53 53 52 51 49 48 47 49 46 47 48 50 50 51 51 51 50 50 52 51
19 19 21 12 11 10 10 8 14 14 18 24 24 17 14 14 18 18 20 18 20 12 13 19 19 13 10 13 16 13 19 20 15 17 21 22 24 24 31 28 27 25 29 29 32 37 41 42 46 50 53 56 57 59 59 60 59 58 61 59 56 54 53 55 55 55 53 53 52 51 50 49 49 50 48 48 49 48 51 50 51 50 49 50 50 50
10 10 9 9 10 9 8 10 19 16 17 18 19 15 15 19 20 21 24 21 16 12 15 15 17 19 12 10 8 15 19 20 21 22 25 25 23 25 29 24 26 29 32 31 33 35 41 44 44 46 53 56 56 57 59 60 59 59 60 58 55 54 53 55 55 55 54 53 52 52 52 49 49 49 48 50 49 49 51 50 49 49 49 49 50 51
18 10 8 9 16 8 8 6 9 12 12 14 17 16 20 13 17 16 18 16 13 13 16 14 16 16 13 14 12 19 17 19 22 17 23 24 22 29 23 28 30 31 31 33 35 40 42 43 45 45 50 55 56 57 58 59 59 60 58 56 55 52 54 55 54 54 55 54 53 52 51 50 50 49 48 50 50 50 49 49 49 49 48 49 49 49
14 10 9 5 10 13 7 5 5 12 13 14 15 21 14 12 13 14 13 14 13 17 15 16 18 12 10 9 15 20 21 20 20 24 24 24 30 31 26 27 28 33 31 34 38 41 45 42 41 44 49 52 56 57 57 58 59 59 57 56 53 52 54 55 54 54 54 54 54 53 52 50 49 49 50 49 49 50 47 48 48 48 48 49 51 51
6 6 6 9 14 10 8 5 5 14 14 13 13 12 19 16 14 12 9 8 7 6 20 12 17 14 10 8 18 24 21 19 17 17 25 28 28 32 27 26 29 33 38 37 42 45 46 48 47 50 53 54 56 57 57 57 57 58 55 54 54 53 53 55 54 53 54 53 54 53 52 50 49 49 47 46 48 50 49 48 50 48 48 48 50 49
4 9 13 10 12 12 8 6 7 5 9 14 15 13 14 16 17 12 13 11 14 11 12 19 16 15 15 25 21 23 18 16 16 19 23 25 25 28 29 31 31 36 39 40 44 48 49 51 52 53 53 54 56 57 56 56 57 57 55 55 54 53 52 54 54 53 53 53 54 54 53 53 51 48 49 47 47 49 50 51 50 49 49 49 49 52
9 6 9 11 10 9 7 10 11 9 13 14 7 18 15 15 12 14 17 21 22 14 10 13 18 17 24 17 21 19 16 16 16 17 18 23 26 33 30 31 33 37 39 42 43 46 50 50 50 51 52 53 54 55 56 56 56 57 56 55 53 53 52 53 54 53 53 53 55 55 53 53 53 51 50 48 50 51 52 52 51 48 48 51 51 52
14 9 7 9 9 6 8 11 10 10 9 6 10 12 12 10 15 18 11 13 13 11 12 15 16 9 10 13 16 16 16 16 14 13 13 27 28 29 34 35 36 37 40 42 44 46 48 50 49 50 51 52 53 55 56 55 56 57 56 54 52 52 52 52 52 53 54 53 54 54 54 53 53 52 51 49 48 50 51 51 51 50 48 49 50 51
21 16 7 6 7 10 14 12 8 8 10 9 6 9 12 12 12 14 13 12 12 13 10 10 8 8 7 13 15 15 16 17 16 14 19 22 22 27 32 34 36 39 41 42 43 45 46 49 50 51 51 50 52 53 54 54 55 56 55 51 52 52 52 54 52 52 53 53 53 54 54 55 54 54 53 52 50 50 51 51 51 50 50 50 50 50
25 17 11 6 6 9 11 11 9 8 5 9 9 6 8 15 16 12 12 14 16 10 12 14 5 7 10 12 16 18 20 20 18 16 19 19 21 26 30 34 35 38 40 38 39 42 46 47 49 49 51 49 53 54 54 54 53 53 54 56 55 55 54 55 55 56 56 52 52 54 54 55 52 51 50 53 53 51 50 48 49 49 51 51 48 50
21 26 15 12 9 10 10 13 13 5 7 9 11 12 11 20 17 12 21 10 12 12 11 11 9 13 19 13 13 17 21 23 21 20 21 22 25 27 31 35 36 37 39 38 38 40 43 46 48 48 49 48 50 51 53 54 54 53 53 53 55 55 54 54 55 54 55 55 53 51 52 54 54 52 49 52 52 53 53 52 50 50 50 49 51 50
18 16 15 16 11 10 12 10 11 13 13 15 18 18 14 15 13 12 14 13 12 13 11 8 9 16 19 16 18 17 22 23 21 20 23 22 23 32 36 38 38 37 37 39 39 39 39 42 44 44 45 47 48 48 49 51 51 52 52 49 51 52 53 54 53 55 55 55 53 52 54 55 55 55 58 59 58 57 58 56 52 53 48 49 51 50
28 26 21 16 14 9 4 7 14 13 15 14 13 12 12 18 18 14 12 15 16 14 10 12 13 12 27 23 20 20 19 20 22 20 23 24 30 33 36 35 37 38 37 37 38 38 39 40 40 39 44 46 47 47 48 49 50 50 51 51 52 51 52 51 51 52 53 54 55 56 56 56 55 54 56 58 56 56 57 56 58 58 56 49 48 51
25 25 17 7 3 1 2 1 5 10 12 11 13 16 16 15 15 15 13 17 14 17 13 13 13 12 28 26 24 24 24 21 23 22 23 26 31 34 35 36 36 36 38 37 37 37 37 37 37 35 36 37 40 43 44 45 46 48 48 47 47 50 52 53 53 52 52 53 53 54 55 56 56 57 55 55 54 54 55 58 57 55 56 57 57 52
21 22 14 6 6 5 7 5 5 2 5 13 13 16 11 10 13 18 18 21 16 18 14 14 12 12 32 26 22 20 20 19 19 20 23 25 33 34 34 35 36 37 37 37 37 37 37 36 34 33 33 33 35 36 41 39 40 42 45 45 44 45 47 50 52 54 53 54 56 55 56 56 56 56 58 59 58 58 58 57 56 56 52 55 56 55
22 23 18 12 12 11 9 4 3 5 11 15 19 16 13 8 20 22 18 18 17 21 17 14 10 15 23 24 23 22 21 20 21 21 22 23 32 31 33 36 37 37 37 37 38 38 38 35 32 34 35 32 34 34 36 38 38 39 40 42 43 41 46 49 50 50 54 56 57 57 57 57 57 57 57 58 57 58 60 59 57 57 60 54 54 54
21 25 22 18 13 11 11 7 15 12 16 11 13 14 18 14 17 23 22 18 15 19 16 18 19 21 19 17 21 23 23 21 23 24 24 24 31 32 35 34 35 35 35 36 39 38 38 38 39 37 37 35 36 35 35 35 36 37 41 41 40 40 43 45 45 46 48 50 52 53 53 55 56 58 58 59 58 58 57 58 58 56 54 53 54 53
24 21 21 24 21 16 14 11 9 11 11 10 12 17 15 18 20 21 18 18 22 18 12 17 21 19 19 18 19 22 22 23 23 24 24 24 31 32 34 33 35 30 32 35 37 38 38 39 40 40 39 37 35 33 33 35 36 37 39 38 40 41 43 43 43 42 45 47 47 47 48 50 50 52 54 53 54 56 58 59 57 58 58 58 56 57
23 18 22 24 19 14 13 12 12 10 6 7 9 14 16 17 19 20 20 20 25 19 16 22 24 23 20 20 19 22 21 23 23 26 28 28 28 31 31 28 27 28 30 29 35 38 39 39 40 40 38 37 37 37 36 36 37 41 40 40 41 40 41 41 41 39 40 42 44 44 45 47 52 54 53 52 54 54 55 53 55 58 58 58 58 58
25 20 22 15 15 13 10 10 9 10 10 10 13 12 14 18 20 21 21 20 21 23 22 22 25 26 23 22 20 21 21 20 20 21 26 25 26 30 28 28 27 26 27 28 33 35 38 39 39 40 40 39 35 34 32 35 36 37 39 40 39 39 39 40 41 40 38 37 39 40 39 41 44 46 48 50 51 51 52 53 54 54 55 56 56 56
25 19 27 23 19 15 14 12 11 10 16 15 12 12 12 15 15 19 20 22 22 21 23 23 26 27 25 25 23 24 25 19 20 20 21 24 25 29 28 28 28 26 25 29 32 34 36 37 38 38 38 38 38 37 37 36 35 35 39 39 38 38 38 37 38 39 38 35 35 37 37 39 40 41 41 45 48 49 50 50 52 53 52 53 54 55
27 22 22 19 16 15 12 10 10 7 10 11 14 17 17 17 19 21 18 21 22 22 23 23 24 23 22 24 23 22 21 20 20 20 20 21 22 26 27 28 27 27 28 29 33 33 34 35 36 37 37 37 35 34 35 35 31 35 36 37 35 36 37 40 41 39 40 40 38 37 36 37 37 38 40 42 43 46 47 48 49 51 51 52 53 54
24 22 18 16 15 17 10 11 11 14 15 11 18 19 18 19 19 18 16 20 23 23 21 19 19 22 23 23 24 26 25 23 22 20 23 23 21 21 26 28 28 29 30 32 30 31 32 32 36 39 37 34 32 29 31 30 31 36 37 36 37 35 38 38 36 37 39 39 38 36 39 37 37 37 38 39 40 43 47 48 48 48 49 51 52 53
23 23 19 19 16 16 13 15 19 15 11 11 25 27 26 23 21 22 20 22 23 25 24 26 26 27 27 27 28 28 28 27 30 31 31 32 30 31 30 29 29 29 32 32 31 31 33 34 36 38 38 37 36 35 36 35 34 37 40 37 36 37 37 33 35 37 36 36 37 37 38 38 38 38 38 40 40 40 41 46 48 49 49 49 51 51
23 21 18 19 15 14 17 18 13 12 11 20 23 23 24 24 22 21 23 23 23 26 29 26 27 26 26 31 31 31 32 33 32 30 30 29 34 35 33 29 30 32 34 33 33 32 36 38 38 39 38 36 36 36 36 32 36 37 34 37 36 36 37 35 33 35 35 35 35 37 39 39 38 39 40 40 40 41 42 43 47 48 49 48 49 50
21 18 17 16 14 14 13 12 10 11 19 22 23 26 26 22 19 20 21 22 21 25 27 25 24 23 28 29 30 30 30 28 27 26 27 29 30 32 31 30 30 32 32 34 34 38 38 36 36 37 37 38 32 30 29 32 35 35 35 35 36 36 35 34 34 32 33 33 33 35 38 39 38 40 39 40 40 40 40 43 47 49 49 48 47 48
22 20 18 15 19 13 13 12 12 17 17 19 21 29 28 26 26 24 18 21 26 27 27 27 26 26 26 26 26 27 29 29 26 24 25 25 29 30 33 34 36 33 34 35 37 37 37 37 35 35 37 36 35 33 35 34 35 36 36 34 34 34 33 34 33 31 32 32 32 36 38 38 38 38 39 39 40 40 42 43 45 48 48 48 49 48
19 20 19 17 17 16 12 11 12 12 12 16 28 31 31 31 31 30 28 25 28 27 25 25 25 26 26 24 25 27 30 26 26 21 24 25 26 29 28 30 34 35 34 34 34 32 34 34 33 33 34 35 34 33 32 34 37 36 36 35 34 32 32 30 31 32 31 30 30 35 36 37 37 37 38 38 37 39 42 43 45 47 48 47 47 47
17 18 20 16 16 16 15 13 13 12 15 26 25 28 28 27 34 30 22 12 25 26 25 25 25 27 28 27 27 28 26 24 23 25 27 28 25 25 26 25 24 26 27 28 29 29 29 33 33 32 31 32 32 32 35 34 36 34 34 34 34 34 32 32 32 33 31 31 30 31 34 37 39 40 40 40 40 42 43 43 45 46 47 46 47 46
18 16 16 15 18 16 15 13 13 16 15 30 28 28 24 25 30 28 16 13 29 28 25 25 24 25 27 29 29 28 25 21 26 30 28 29 27 28 27 25 27 27 24 26 27 30 30 32 31 31 32 32 33 35 34 33 33 34 33 33 33 33 34 34 34 32 31 29 30 32 34 36 37 40 41 41 42 43 43 42 43 46 46 46 44 43
16 17 17 15 14 16 17 13 13 16 25 28 27 27 24 28 25 16 13 19 26 26 24 26 25 26 26 27 27 26 29 27 26 28 29 28 26 25 27 28 27 25 24 25 26 31 27 28 29 27 31 32 33 33 33 32 34 34 33 34 34 34 34 35 34 34 32 31 29 29 32 32 35 39 41 42 43 42 43 43 42 44 45 45 45 45
19 21 19 20 17 14 14 12 12 14 30 28 25 27 25 24 15 13 23 27 26 25 25 24 25 26 27 26 26 26 27 27 28 27 26 26 27 28 27 27 27 26 25 27 29 28 28 26 30 30 31 31 31 32 33 33 33 33 32 33 34 35 34 35 33 33 32 31 29 30 31 34 36 39 42 43 43 44 42 43 43 43 44 47 47 49
15 16 14 12 15 15 14 12 11 10 25 26 26 22 23 20 18 23 24 25 25 23 23 24 24 25 26 27 27 29 28 27 28 27 28 28 28 28 28 27 28 26 27 29 28 25 25 25 26 26 28 26 28 30 31 32 32 33 34 34 35 34 34 33 34 33 33 31 31 31 32 36 38 38 40 43 44 44 45 44 43 44 45 47 50 49
17 15 14 14 15 11 11 11 11 21 23 25 23 19 24 23 20 23 23 22 23 23 23 23 23 25 26 25 25 26 26 26 27 27 26 26 27 27 27 27 27 26 27 26 25 25 24 24 25 27 28 27 26 27 29 31 31 32 32 34 35 35 35 34 33 32 32 32 32 33 32 34 37 38 39 41 44 45 45 45 45 46 47 49 47 46
13 11 14 12 19 16 15 16 19 19 18 18 22 20 22 22 22 21 21 20 20 19 21 19 21 24 25 25 25 26 25 26 25 26 26 27 26 26 26 26 26 26 26 26 25 26 25 23 27 26 26 26 28 28 29 30 32 33 34 35 35 34 36 36 36 36 35 34 34 34 34 37 38 39 38 40 43 43 42 44 48 48 48 47 46 46
16 16 19 16 13 17 16 16 18 14 14 17 18 19 18 18 17 18 18 17 18 19 19 20 22 22 23 24 23 23 24 24 25 24 24 24 24 24 27 25 24 26 26 25 25 25 24 24 26 25 27 27 28 28 31 32 31 33 34 35 36 35 35 34 35 35 36 35 36 35 33 35 36 38 39 41 41 43 44 46 47 46 46 45 45 44
13 19 16 14 17 15 13 14 13 14 16 17 14 15 16 17 16 17 17 17 18 19 20 22 21 22 22 23 23 22 22 22 21 21 21 21 22 23 23 23 24 24 24 23 25 25 25 25 23 25 27 28 29 28 28 29 29 28 29 30 29 29 29 28 28 30 31 32 33 37 37 37 37 38 40 40 43 44 46 47 47 46 44 45 43 41
14 19 14 14 13 12 14 15 15 15 15 15 14 14 14 15 16 17 18 19 19 20 19 19 20 20 21 20 21 21 20 20 20 20 20 20 20 18 18 20 21 22 22 23 24 24 23 24 25 26 27 28 29 28 28 27 25 26 27 28 29 29 27 29 30 30 30 31 33 33 34 37 35 38 40 42 44 45 46 45 46 44 44 43 41 36
14 17 12 12 11 11 12 12 11 14 14 14 15 15 17 17 18 20 22 23 23 22 22 22 22 22 20 19 18 19 19 19 19 19 18 15 17 19 19 19 20 23 25 24 25 27 27 27 27 29 30 31 31 31 32 32 32 29 28 29 29 30 32 32 31 32 33 34 32 32 34 37 38 41 42 44 45 45 45 44 44 44 45 47 40 39
13 11 12 13 12 11 10 12 15 13 14 15 19 21 22 25 26 27 26 24 23 22 23 25 25 24 25 27 28 28 27 23 23 24 20 19 20 21 21 22 25 26 26 26 28 28 29 30 31 32 33 33 34 31 31 31 30 31 29 30 30 31 32 34 34 35 34 35 35 35 35 38 39 40 42 44 43 40 38 33 35 42 40 37 34 34
14 16 14 11 12 13 15 16 19 22 22 22 23 25 27 27 28 27 27 27 29 30 31 31 30 29 30 31 31 31 29 29 29 29 29 25 25 26 26 27 28 29 29 30 31 32 34 35 35 36 34 33 33 32 31 33 34 34 34 32 31 33 33 34 34 34 35 36 37 36 38 39 40 44 44 43 41 40 38 36 34 33 34 34 34 33